Location: Newark
(53.6872°N, 9.6692°E)
Time: 12:42:10
(UTC+00:00)

N. Korean satellite - Visible Passes

Search period start: 23 October 2019 00:00
Search period end: 02 November 2019 00:00
Orbit: 455 x 508 km, 97.2° (Epoch: 22 October)

Date Brightness Start Highest point End Pass type
(mag) Time Alt. Az. Time Alt. Az. Time Alt. Az.
23 Oct 8.0 05:04:14 10° NNE 05:07:43 43° E 05:11:14 10° S visible
23 Oct 9.8 17:20:21 10° SW 17:22:49 18° W 17:25:19 10° NW visible
24 Oct 9.3 04:39:13 10° NE 04:42:16 24° E 04:45:20 10° SSE visible
24 Oct 8.6 16:54:10 10° SSW 16:57:18 32° W 17:00:31 10° NNW visible
25 Oct 10.1 04:14:41 10° NE 04:16:44 14° E 04:18:48 10° ESE visible
26 Oct 7.0 05:21:34 10° NNE 05:25:13 69° ESE 05:28:54 10° S visible
26 Oct 10.2 17:38:54 10° WSW 17:40:26 12° W 17:41:58 10° WNW visible
27 Oct 8.4 04:56:24 10° NNE 04:59:49 36° E 05:03:16 10° SSE visible
27 Oct 9.4 17:12:06 10° SW 17:14:51 22° W 17:17:40 10° NW visible
28 Oct 9.5 04:31:29 10° NE 04:34:21 21° E 04:37:13 10° SE visible
28 Oct 8.2 16:46:05 10° SSW 16:49:21 39° W 16:52:43 10° NNW visible
29 Oct 10.3 04:07:12 10° ENE 04:08:46 12° E 04:10:20 10° ESE visible
30 Oct 7.4 05:13:40 10° NNE 05:17:19 57° E 05:20:58 10° S visible
30 Oct 10.0 17:30:20 10° SW 17:32:25 15° W 17:34:32 10° NW visible
31 Oct 8.8 04:48:33 10° NNE 04:51:53 31° E 04:55:13 10° SSE visible
31 Oct 9.1 17:03:52 10° SSW 17:06:52 26° W 17:09:55 10° NW visible
01 Nov 9.8 04:23:45 10° NE 04:26:22 18° E 04:28:59 10° SE visible
01 Nov 7.7 16:37:59 10° S 16:41:23 48° W 16:44:52 10° NNW visible
